Time,TemperatureF,DewpointF,PressureIn,WindDirection,WindDirectionDegrees,WindSpeedMPH,WindSpeedGustMPH,Humidity,HourlyPrecipIn,Conditions,Clouds,dailyrainin,SoftwareType,DateUTC
2013-01-13 00:02:00,70.6,65.5,29.71,South,176,6.0,20.0,84,0.00,,---,0.18,VWS V14.01,2013-01-13 06:02:00,
2013-01-13 00:07:00,70.4,65.3,29.71,SE,127,7.0,22.0,84,0.00,,---,0.00,VWS V14.01,2013-01-13 06:07:00,
2013-01-13 00:12:00,70.5,65.4,29.70,South,180,10.0,22.0,84,0.00,,---,0.00,VWS V14.01,2013-01-13 06:12:00,
2013-01-13 00:17:00,70.5,65.4,29.70,SE,135,8.0,22.0,84,0.00,,---,0.00,VWS V14.01,2013-01-13 06:17:00,
2013-01-13 00:22:00,70.4,65.0,29.70,SSE,163,8.0,22.0,83,0.00,,---,0.00,VWS V14.01,2013-01-13 06:22:00,
2013-01-13 00:27:00,70.5,65.1,29.70,South,175,8.0,22.0,83,0.00,,---,0.00,VWS V14.01,2013-01-13 06:27:00,
2013-01-13 00:32:00,70.4,65.0,29.70,South,184,15.0,22.0,83,0.00,,---,0.00,VWS V14.01,2013-01-13 06:32:00,
2013-01-13 00:37:00,70.4,65.0,29.70,SW,214,17.0,17.0,83,0.00,,---,0.00,VWS V14.01,2013-01-13 06:37:00,
2013-01-13 00:42:00,70.5,65.1,29.70,SW,223,11.0,18.0,83,0.00,,---,0.00,VWS V14.01,2013-01-13 06:42:00,
2013-01-13 00:47:00,70.4,65.0,29.70,South,169,14.0,18.0,83,0.00,,---,0.00,VWS V14.01,2013-01-13 06:47:00,
2013-01-13 00:52:00,70.4,65.3,29.71,SSW,201,8.0,18.0,84,0.00,,---,0.00,VWS V14.01,2013-01-13 06:52:00,
2013-01-13 00:57:00,70.0,65.6,29.71,South,181,7.0,18.0,86,0.04,,---,0.04,VWS V14.01,2013-01-13 06:57:00,
2013-01-13 01:02:00,69.2,65.5,29.70,SSW,199,10.0,26.0,88,0.06,,---,0.06,VWS V14.01,2013-01-13 07:02:00,
2013-01-13 01:07:00,68.8,65.4,29.71,SW,216,7.0,13.0,89,0.06,,---,0.06,VWS V14.01,2013-01-13 07:07:00,
2013-01-13 01:12:00,68.7,65.3,29.71,SSW,207,8.0,21.0,89,0.06,,---,0.06,VWS V14.01,2013-01-13 07:12:00,
2013-01-13 01:17:00,68.6,65.2,29.71,SSW,196,9.0,21.0,89,0.06,,---,0.06,VWS V14.01,2013-01-13 07:17:00,
2013-01-13 01:22:00,68.5,65.5,29.73,West,265,7.0,21.0,90,0.06,,---,0.06,VWS V14.01,2013-01-13 07:22:00,
2013-01-13 01:27:00,67.5,62.8,29.74,NNW,340,5.0,21.0,85,0.06,,---,0.06,VWS V14.01,2013-01-13 07:27:00,
2013-01-13 01:32:00,65.5,61.2,29.75,North,349,7.0,21.0,86,0.06,,---,0.06,VWS V14.01,2013-01-13 07:32:00,
2013-01-13 01:37:00,64.0,60.4,29.75,NNE,12,2.0,6.0,88,0.07,,---,0.07,VWS V14.01,2013-01-13 07:37:00,
2013-01-13 01:42:00,62.8,59.8,29.74,NNE,13,1.0,11.0,90,0.09,,---,0.09,VWS V14.01,2013-01-13 07:42:00,
2013-01-13 01:47:00,62.1,59.8,29.74,SSW,207,3.0,11.0,92,0.14,,---,0.14,VWS V14.01,2013-01-13 07:47:00,
2013-01-13 01:52:00,61.7,59.7,29.75,South,188,0.0,11.0,93,0.19,,---,0.19,VWS V14.01,2013-01-13 07:52:00,
2013-01-13 01:57:00,61.5,60.1,29.75,West,266,4.0,11.0,95,0.25,,---,0.25,VWS V14.01,2013-01-13 07:57:00,
2013-01-13 02:02:00,61.4,60.0,29.76,West,276,3.0,14.0,95,0.32,,---,0.32,VWS V14.01,2013-01-13 08:02:00,
2013-01-13 02:07:00,61.3,59.9,29.75,NW,306,7.0,15.0,95,0.34,,---,0.40,VWS V14.01,2013-01-13 08:07:00,
2013-01-13 02:12:00,61.1,59.7,29.75,WSW,257,3.0,15.0,95,0.38,,---,0.44,VWS V14.01,2013-01-13 08:12:00,
2013-01-13 02:17:00,60.9,59.5,29.76,SSW,208,4.0,15.0,95,0.44,,---,0.50,VWS V14.01,2013-01-13 08:17:00,
2013-01-13 02:22:00,60.7,59.6,29.76,West,259,6.0,15.0,96,0.54,,---,0.60,VWS V14.01,2013-01-13 08:22:00,
2013-01-13 02:27:00,60.4,59.3,29.78,SW,236,5.0,15.0,96,0.60,,---,0.66,VWS V14.01,2013-01-13 08:27:00,
2013-01-13 02:32:00,60.3,59.2,29.78,WSW,257,1.0,15.0,96,0.66,,---,0.72,VWS V14.01,2013-01-13 08:32:00,
2013-01-13 02:37:00,59.9,58.8,29.78,West,260,8.0,11.0,96,0.72,,---,0.78,VWS V14.01,2013-01-13 08:37:00,
2013-01-13 02:42:00,59.5,58.1,29.78,West,278,6.0,11.0,95,0.75,,---,0.81,VWS V14.01,2013-01-13 08:42:00,
2013-01-13 02:47:00,59.2,58.1,29.77,West,263,5.0,11.0,96,0.78,,---,0.84,VWS V14.01,2013-01-13 08:47:00,
2013-01-13 02:52:00,58.8,57.4,29.77,WNW,302,5.0,11.0,95,0.80,,---,0.86,VWS V14.01,2013-01-13 08:52:00,
2013-01-13 02:57:00,58.2,56.8,29.79,NNW,333,5.0,11.0,95,0.81,,---,0.87,VWS V14.01,2013-01-13 08:57:00,
2013-01-13 03:02:00,57.2,55.5,29.79,NNW,336,6.0,11.0,94,0.82,,---,0.88,VWS V14.01,2013-01-13 09:02:00,
2013-01-13 03:07:00,56.2,54.2,29.79,WNW,299,4.0,10.0,93,0.53,,---,0.89,VWS V14.01,2013-01-13 09:07:00,
2013-01-13 03:12:00,55.3,53.6,29.80,NNW,346,2.0,10.0,94,0.54,,---,0.90,VWS V14.01,2013-01-13 09:12:00,
2013-01-13 03:17:00,54.8,53.1,29.81,NNW,347,5.0,10.0,94,0.56,,---,0.92,VWS V14.01,2013-01-13 09:17:00,
2013-01-13 03:22:00,54.4,53.0,29.80,North,355,3.0,10.0,95,0.58,,---,0.94,VWS V14.01,2013-01-13 09:22:00,
2013-01-13 03:27:00,54.1,52.7,29.79,North,360,4.0,10.0,95,0.59,,---,0.95,VWS V14.01,2013-01-13 09:27:00,
2013-01-13 03:32:00,53.5,51.8,29.79,NNW,337,7.0,10.0,94,0.60,,---,0.96,VWS V14.01,2013-01-13 09:32:00,
2013-01-13 03:37:00,52.9,51.5,29.79,NW,313,5.0,5.0,95,0.22,,---,0.98,VWS V14.01,2013-01-13 09:37:00,
2013-01-13 03:42:00,52.6,51.2,29.79,NNW,339,1.0,7.0,95,0.24,,---,1.00,VWS V14.01,2013-01-13 09:42:00,
2013-01-13 03:47:00,52.3,50.9,29.79,NNE,13,8.0,11.0,95,0.26,,---,1.02,VWS V14.01,2013-01-13 09:47:00,
2013-01-13 03:52:00,52.0,50.9,29.79,NNW,340,6.0,11.0,96,0.28,,---,1.04,VWS V14.01,2013-01-13 09:52:00,
2013-01-13 03:57:00,51.5,50.1,29.81,North,355,10.0,11.0,95,0.29,,---,1.05,VWS V14.01,2013-01-13 09:57:00,
2013-01-13 04:02:00,50.9,49.5,29.82,NNW,331,3.0,11.0,95,0.31,,---,1.07,VWS V14.01,2013-01-13 10:02:00,
2013-01-13 04:07:00,50.1,48.4,29.82,NW,321,7.0,13.0,94,0.22,,---,1.10,VWS V14.01,2013-01-13 10:07:00,
2013-01-13 04:12:00,49.3,47.7,29.83,NNW,348,1.0,13.0,94,0.24,,---,1.12,VWS V14.01,2013-01-13 10:12:00,
2013-01-13 04:17:00,48.7,47.0,29.82,NNE,13,9.0,13.0,94,0.26,,---,1.14,VWS V14.01,2013-01-13 10:17:00,
2013-01-13 04:22:00,48.3,46.9,29.82,NNE,19,7.0,13.0,95,0.28,,---,1.16,VWS V14.01,2013-01-13 10:22:00,
2013-01-13 04:27:00,47.9,46.3,29.83,North,10,8.0,13.0,94,0.30,,---,1.18,VWS V14.01,2013-01-13 10:27:00,
2013-01-13 04:32:00,47.4,46.0,29.83,North,355,4.0,13.0,95,0.32,,---,1.20,VWS V14.01,2013-01-13 10:32:00,
2013-01-13 04:37:00,46.9,45.5,29.83,North,350,5.0,10.0,95,0.26,,---,1.23,VWS V14.01,2013-01-13 10:37:00,
2013-01-13 04:42:00,46.6,45.2,29.84,NW,306,6.0,10.0,95,0.29,,---,1.26,VWS V14.01,2013-01-13 10:42:00,
2013-01-13 04:47:00,46.4,45.0,29.84,NNW,339,6.0,10.0,95,0.31,,---,1.28,VWS V14.01,2013-01-13 10:47:00,
2013-01-13 04:52:00,46.3,45.0,29.83,NNE,25,6.0,10.0,95,0.35,,---,1.32,VWS V14.01,2013-01-13 10:52:00,
2013-01-13 04:57:00,46.1,45.0,29.83,NNW,347,2.0,10.0,96,0.37,,---,1.34,VWS V14.01,2013-01-13 10:57:00,
2013-01-13 05:02:00,46.1,45.0,29.84,NNE,21,7.0,10.0,96,0.39,,---,1.36,VWS V14.01,2013-01-13 11:02:00,
2013-01-13 05:07:00,46.0,44.9,29.83,North,5,3.0,8.0,96,0.32,,---,1.40,VWS V14.01,2013-01-13 11:07:00,
2013-01-13 05:12:00,45.9,44.8,29.84,West,278,4.0,11.0,96,0.34,,---,1.42,VWS V14.01,2013-01-13 11:12:00,
2013-01-13 05:17:00,45.5,44.4,29.83,NNE,30,4.0,11.0,96,0.36,,---,1.44,VWS V14.01,2013-01-13 11:17:00,
2013-01-13 05:22:00,45.0,43.7,29.82,NNW,336,7.0,12.0,95,0.39,,---,1.47,VWS V14.01,2013-01-13 11:22:00,
2013-01-13 05:27:00,44.6,43.3,29.80,NNE,24,4.0,16.0,95,0.41,,---,1.49,VWS V14.01,2013-01-13 11:27:00,
2013-01-13 05:32:00,44.3,43.2,29.78,NNE,32,4.0,16.0,96,0.43,,---,1.51,VWS V14.01,2013-01-13 11:32:00,
2013-01-13 05:37:00,44.1,43.0,29.81,NNW,335,8.0,8.0,96,0.31,,---,1.53,VWS V14.01,2013-01-13 11:37:00,
2013-01-13 05:42:00,44.1,43.0,29.84,NNW,333,2.0,9.0,96,0.31,,---,1.53,VWS V14.01,2013-01-13 11:42:00,
2013-01-13 05:47:00,44.0,42.9,29.84,NW,322,9.0,14.0,96,0.32,,---,1.54,VWS V14.01,2013-01-13 11:47:00,
2013-01-13 05:52:00,43.5,42.2,29.85,North,350,8.0,15.0,95,0.32,,---,1.54,VWS V14.01,2013-01-13 11:52:00,
2013-01-13 05:57:00,42.8,41.5,29.85,NNW,333,7.0,16.0,95,0.32,,---,1.54,VWS V14.01,2013-01-13 11:57:00,
2013-01-13 06:02:00,42.5,41.2,29.86,NW,306,4.0,16.0,95,0.32,,---,1.54,VWS V14.01,2013-01-13 12:02:00,
2013-01-13 06:07:00,42.4,41.3,29.87,WNW,290,3.0,9.0,96,0.16,,---,1.54,VWS V14.01,2013-01-13 12:07:00,
2013-01-13 06:12:00,42.2,40.9,29.86,NE,40,3.0,12.0,95,0.16,,---,1.54,VWS V14.01,2013-01-13 12:12:00,
2013-01-13 06:17:00,42.0,40.7,29.86,North,350,0.0,12.0,95,0.16,,---,1.54,VWS V14.01,2013-01-13 12:17:00,
2013-01-13 06:22:00,41.8,40.5,29.83,NE,35,4.0,15.0,95,0.16,,---,1.54,VWS V14.01,2013-01-13 12:22:00,
2013-01-13 06:27:00,41.6,40.3,29.83,NNE,25,4.0,15.0,95,0.17,,---,1.55,VWS V14.01,2013-01-13 12:27:00,
2013-01-13 06:32:00,41.6,40.3,29.84,NE,38,5.0,15.0,95,0.18,,---,1.56,VWS V14.01,2013-01-13 12:32:00,
2013-01-13 06:37:00,41.6,40.3,29.83,NNE,13,3.0,8.0,95,0.06,,---,1.58,VWS V14.01,2013-01-13 12:37:00,
2013-01-13 06:42:00,41.6,40.5,29.85,NNE,26,3.0,8.0,96,0.12,,---,1.64,VWS V14.01,2013-01-13 12:42:00,
2013-01-13 06:47:00,41.5,40.5,29.86,NNE,16,3.0,10.0,96,0.17,,---,1.69,VWS V14.01,2013-01-13 12:47:00,
2013-01-13 06:52:00,41.5,40.5,29.86,NNW,341,6.0,10.0,96,0.20,,---,1.72,VWS V14.01,2013-01-13 12:52:00,
2013-01-13 06:57:00,41.4,40.3,29.85,NW,325,4.0,10.0,96,0.24,,---,1.76,VWS V14.01,2013-01-13 12:57:00,
2013-01-13 07:02:00,41.5,40.5,29.86,North,5,1.0,10.0,96,0.27,,---,1.79,VWS V14.01,2013-01-13 13:02:00,
2013-01-13 07:07:00,41.4,40.3,29.86,North,351,4.0,4.0,96,0.26,,---,1.80,VWS V14.01,2013-01-13 13:07:00,
2013-01-13 07:12:00,41.4,40.3,29.86,NNW,337,1.0,8.0,96,0.29,,---,1.83,VWS V14.01,2013-01-13 13:12:00,
2013-01-13 07:17:00,41.4,40.3,29.87,NNW,328,3.0,9.0,96,0.32,,---,1.86,VWS V14.01,2013-01-13 13:17:00,
2013-01-13 07:22:00,41.3,40.2,29.86,ENE,65,5.0,10.0,96,0.34,,---,1.88,VWS V14.01,2013-01-13 13:22:00,
2013-01-13 07:27:00,41.3,40.2,29.87,NW,316,5.0,10.0,96,0.38,,---,1.92,VWS V14.01,2013-01-13 13:27:00,
2013-01-13 07:32:00,41.2,40.2,29.83,NE,42,7.0,11.0,96,0.40,,---,1.94,VWS V14.01,2013-01-13 13:32:00,
2013-01-13 07:37:00,41.0,40.0,29.84,NNW,338,4.0,11.0,96,0.41,,---,1.97,VWS V14.01,2013-01-13 13:37:00,
2013-01-13 07:42:00,41.1,40.3,29.86,NW,315,6.0,11.0,97,0.43,,---,1.99,VWS V14.01,2013-01-13 13:42:00,
2013-01-13 07:47:00,41.1,40.3,29.89,WSW,245,2.0,13.0,97,0.45,,---,2.01,VWS V14.01,2013-01-13 13:47:00,
2013-01-13 07:52:00,41.0,40.0,29.90,NNW,328,7.0,14.0,96,0.46,,---,2.02,VWS V14.01,2013-01-13 13:52:00,
2013-01-13 07:57:00,40.8,39.8,29.90,NE,49,2.0,15.0,96,0.47,,---,2.03,VWS V14.01,2013-01-13 13:57:00,
2013-01-13 08:02:00,40.6,39.5,29.90,NNE,28,4.0,15.0,96,0.49,,---,2.05,VWS V14.01,2013-01-13 14:02:00,
2013-01-13 08:06:00,40.5,39.5,29.90,NNW,337,3.0,8.0,96,0.26,,---,2.06,VWS V14.01,2013-01-13 14:06:00,
2013-01-13 08:11:00,40.4,39.3,29.89,North,360,10.0,12.0,96,0.27,,---,2.07,VWS V14.01,2013-01-13 14:11:00,
2013-01-13 08:16:00,40.4,39.3,29.89,North,5,3.0,12.0,96,0.29,,---,2.09,VWS V14.01,2013-01-13 14:16:00,
2013-01-13 08:21:00,40.3,39.2,29.91,NW,312,7.0,12.0,96,0.30,,---,2.10,VWS V14.01,2013-01-13 14:21:00,
2013-01-13 08:26:00,40.3,39.2,29.91,NNW,342,6.0,12.0,96,0.32,,---,2.12,VWS V14.01,2013-01-13 14:26:00,
2013-01-13 08:31:00,40.2,39.2,29.92,WNW,302,6.0,12.0,96,0.34,,---,2.14,VWS V14.01,2013-01-13 14:31:00,
2013-01-13 08:36:00,40.2,39.2,29.94,NW,324,6.0,7.0,96,0.18,,---,2.14,VWS V14.01,2013-01-13 14:36:00,
2013-01-13 08:41:00,40.1,39.0,29.94,NNW,338,3.0,10.0,96,0.19,,---,2.15,VWS V14.01,2013-01-13 14:41:00,
2013-01-13 08:46:00,40.2,39.2,29.95,WNW,290,6.0,11.0,96,0.20,,---,2.16,VWS V14.01,2013-01-13 14:46:00,
2013-01-13 08:51:00,40.1,39.0,29.95,NW,317,4.0,11.0,96,0.21,,---,2.17,VWS V14.01,2013-01-13 14:51:00,
2013-01-13 08:56:00,40.1,39.0,29.94,NNW,340,2.0,11.0,96,0.22,,---,2.18,VWS V14.01,2013-01-13 14:56:00,
2013-01-13 09:01:00,40.2,39.2,29.93,NW,314,1.0,11.0,96,0.22,,---,2.18,VWS V14.01,2013-01-13 15:01:00,
2013-01-13 09:06:00,40.2,39.2,29.92,NW,325,4.0,10.0,96,0.14,,---,2.19,VWS V14.01,2013-01-13 15:06:00,
2013-01-13 09:11:00,40.3,39.2,29.92,North,355,7.0,11.0,96,0.14,,---,2.19,VWS V14.01,2013-01-13 15:11:00,
2013-01-13 09:16:00,40.2,39.2,29.93,NW,325,6.0,15.0,96,0.15,,---,2.20,VWS V14.01,2013-01-13 15:16:00,
2013-01-13 09:21:00,40.2,39.2,29.92,NNW,336,3.0,15.0,96,0.15,,---,2.20,VWS V14.01,2013-01-13 15:21:00,
2013-01-13 09:26:00,40.2,39.2,29.91,NE,43,3.0,15.0,96,0.15,,---,2.20,VWS V14.01,2013-01-13 15:26:00,
2013-01-13 09:31:00,40.2,39.2,29.91,North,350,8.0,15.0,96,0.15,,---,2.20,VWS V14.01,2013-01-13 15:31:00,
2013-01-13 09:36:00,40.2,39.2,29.91,NE,55,10.0,11.0,96,0.06,,---,2.20,VWS V14.01,2013-01-13 15:36:00,
2013-01-13 09:41:00,40.2,39.2,29.90,North,5,8.0,11.0,96,0.06,,---,2.20,VWS V14.01,2013-01-13 15:41:00,
2013-01-13 09:46:00,40.2,39.2,29.89,North,360,2.0,13.0,96,0.06,,---,2.20,VWS V14.01,2013-01-13 15:46:00,
2013-01-13 09:51:00,40.2,39.2,29.91,NNE,16,12.0,13.0,96,0.06,,---,2.20,VWS V14.01,2013-01-13 15:51:00,
2013-01-13 09:56:00,40.2,39.2,29.93,North,355,6.0,13.0,96,0.07,,---,2.21,VWS V14.01,2013-01-13 15:56:00,
2013-01-13 10:01:00,40.3,39.2,29.92,NNW,329,6.0,13.0,96,0.08,,---,2.22,VWS V14.01,2013-01-13 16:01:00,
2013-01-13 10:06:00,40.3,39.2,29.91,NNW,341,7.0,11.0,96,0.04,,---,2.23,VWS V14.01,2013-01-13 16:06:00,
2013-01-13 10:11:00,40.2,39.2,29.91,North,5,10.0,15.0,96,0.05,,---,2.24,VWS V14.01,2013-01-13 16:11:00,
2013-01-13 10:16:00,40.1,39.0,29.94,ENE,71,7.0,15.0,96,0.07,,---,2.26,VWS V14.01,2013-01-13 16:16:00,
2013-01-13 10:21:00,40.1,39.0,29.94,NE,36,6.0,15.0,96,0.09,,---,2.28,VWS V14.01,2013-01-13 16:21:00,
2013-01-13 10:26:00,40.1,39.0,29.94,NW,313,5.0,15.0,96,0.11,,---,2.30,VWS V14.01,2013-01-13 16:26:00,
2013-01-13 10:31:00,40.1,39.0,29.93,North,360,8.0,15.0,96,0.12,,---,2.31,VWS V14.01,2013-01-13 16:31:00,
2013-01-13 10:36:00,40.0,39.0,29.93,North,5,4.0,8.0,96,0.13,,---,2.33,VWS V14.01,2013-01-13 16:36:00,
2013-01-13 10:41:00,40.0,39.0,29.93,NW,309,10.0,10.0,96,0.15,,---,2.35,VWS V14.01,2013-01-13 16:41:00,
2013-01-13 10:46:00,40.0,39.0,29.94,NNW,336,10.0,11.0,96,0.17,,---,2.37,VWS V14.01,2013-01-13 16:46:00,
2013-01-13 10:51:00,39.9,38.8,29.94,NW,321,3.0,11.0,96,0.18,,---,2.38,VWS V14.01,2013-01-13 16:51:00,
2013-01-13 10:56:00,40.0,39.0,29.93,NNW,340,3.0,11.0,96,0.20,,---,2.40,VWS V14.01,2013-01-13 16:56:00,
2013-01-13 11:01:00,39.9,38.8,29.94,North,360,6.0,11.0,96,0.22,,---,2.42,VWS V14.01,2013-01-13 17:01:00,
2013-01-13 11:06:00,39.8,38.8,29.94,NNW,338,9.0,10.0,96,0.21,,---,2.43,VWS V14.01,2013-01-13 17:06:00,
2013-01-13 11:11:00,39.7,38.4,29.95,NNE,30,5.0,12.0,95,0.21,,---,2.43,VWS V14.01,2013-01-13 17:11:00,
2013-01-13 11:16:00,39.5,38.2,29.94,North,355,7.0,14.0,95,0.21,,---,2.43,VWS V14.01,2013-01-13 17:16:00,
2013-01-13 11:21:00,39.4,38.1,29.95,NNW,336,12.0,14.0,95,0.22,,---,2.44,VWS V14.01,2013-01-13 17:21:00,
2013-01-13 11:26:00,39.3,38.0,29.95,NNW,346,9.0,14.0,95,0.24,,---,2.46,VWS V14.01,2013-01-13 17:26:00,
2013-01-13 11:31:00,39.3,38.0,29.97,NNW,330,12.0,16.0,95,0.25,,---,2.47,VWS V14.01,2013-01-13 17:31:00,
2013-01-13 11:36:00,39.2,37.9,29.97,WNW,296,6.0,13.0,95,0.16,,---,2.48,VWS V14.01,2013-01-13 17:36:00,
2013-01-13 11:41:00,39.1,37.8,29.97,NW,326,7.0,13.0,95,0.17,,---,2.49,VWS V14.01,2013-01-13 17:41:00,
2013-01-13 11:46:00,39.1,37.8,29.97,NW,323,10.0,13.0,95,0.19,,---,2.51,VWS V14.01,2013-01-13 17:46:00,
2013-01-13 11:51:00,39.1,37.8,29.96,NW,317,6.0,13.0,95,0.19,,---,2.51,VWS V14.01,2013-01-13 17:51:00,
2013-01-13 11:56:00,39.0,37.7,29.95,North,355,6.0,13.0,95,0.20,,---,2.52,VWS V14.01,2013-01-13 17:56:00,
2013-01-13 12:01:00,39.1,38.1,29.96,WNW,300,6.0,13.0,96,0.21,,---,2.53,VWS V14.01,2013-01-13 18:01:00,
2013-01-13 12:06:00,39.0,37.7,29.95,North,360,7.0,11.0,95,0.12,,---,2.54,VWS V14.01,2013-01-13 18:06:00,
2013-01-13 12:11:00,39.0,37.7,29.95,NNW,346,10.0,18.0,95,0.12,,---,2.54,VWS V14.01,2013-01-13 18:11:00,
2013-01-13 12:16:00,39.0,37.7,29.95,North,351,8.0,18.0,95,0.12,,---,2.54,VWS V14.01,2013-01-13 18:16:00,
2013-01-13 12:21:00,38.9,37.6,29.96,NNW,336,4.0,18.0,95,0.13,,---,2.55,VWS V14.01,2013-01-13 18:21:00,
2013-01-13 12:26:00,38.9,37.6,29.95,NW,304,6.0,18.0,95,0.13,,---,2.55,VWS V14.01,2013-01-13 18:26:00,
2013-01-13 12:31:00,39.1,37.8,29.96,NNW,327,7.0,18.0,95,0.14,,---,2.56,VWS V14.01,2013-01-13 18:31:00,
2013-01-13 12:36:00,39.1,37.8,29.96,NW,313,5.0,9.0,95,0.08,,---,2.56,VWS V14.01,2013-01-13 18:36:00,
2013-01-13 12:41:00,39.1,37.8,29.97,North,350,11.0,12.0,95,0.08,,---,2.56,VWS V14.01,2013-01-13 18:41:00,
2013-01-13 12:46:00,39.0,37.4,29.98,NNW,333,10.0,12.0,94,0.08,,---,2.56,VWS V14.01,2013-01-13 18:46:00,
2013-01-13 12:51:00,39.0,37.7,29.95,NNE,21,11.0,12.0,95,0.08,,---,2.56,VWS V14.01,2013-01-13 18:51:00,
2013-01-13 12:56:00,39.1,37.8,29.95,NW,311,6.0,12.0,95,0.08,,---,2.56,VWS V14.01,2013-01-13 18:56:00,
2013-01-13 13:01:00,39.1,37.8,29.95,NNE,27,7.0,12.0,95,0.08,,---,2.56,VWS V14.01,2013-01-13 19:01:00,
2013-01-13 13:06:00,39.0,37.7,29.96,NNW,330,5.0,10.0,95,0.03,,---,2.56,VWS V14.01,2013-01-13 19:06:00,
2013-01-13 13:11:00,39.0,37.7,29.97,North,9,10.0,12.0,95,0.03,,---,2.56,VWS V14.01,2013-01-13 19:11:00,
2013-01-13 13:16:00,39.0,37.7,29.97,NNW,340,9.0,13.0,95,0.03,,---,2.56,VWS V14.01,2013-01-13 19:16:00,
2013-01-13 13:21:00,39.0,37.7,29.96,NNE,14,5.0,13.0,95,0.03,,---,2.56,VWS V14.01,2013-01-13 19:21:00,
2013-01-13 13:26:00,39.0,37.7,29.97,NNE,15,8.0,13.0,95,0.03,,---,2.56,VWS V14.01,2013-01-13 19:26:00,
2013-01-13 13:31:00,39.1,37.8,29.96,North,350,3.0,13.0,95,0.04,,---,2.57,VWS V14.01,2013-01-13 19:31:00,
2013-01-13 13:36:00,39.0,37.7,29.96,North,5,6.0,6.0,95,0.02,,---,2.58,VWS V14.01,2013-01-13 19:36:00,
2013-01-13 13:41:00,39.0,37.7,29.96,North,5,7.0,12.0,95,0.02,,---,2.58,VWS V14.01,2013-01-13 19:41:00,
2013-01-13 13:46:00,39.0,37.7,29.96,NW,315,3.0,12.0,95,0.02,,---,2.58,VWS V14.01,2013-01-13 19:46:00,
2013-01-13 13:51:00,39.0,37.7,29.97,NW,315,7.0,12.0,95,0.03,,---,2.59,VWS V14.01,2013-01-13 19:51:00,
2013-01-13 13:56:00,39.1,37.8,29.98,NNW,340,5.0,12.0,95,0.04,,---,2.60,VWS V14.01,2013-01-13 19:56:00,
2013-01-13 14:01:00,39.2,37.9,29.98,NNW,339,2.0,12.0,95,0.04,,---,2.60,VWS V14.01,2013-01-13 20:01:00,
2013-01-13 14:06:00,39.3,38.3,29.99,North,350,10.0,10.0,96,0.05,,---,2.61,VWS V14.01,2013-01-13 20:06:00,
2013-01-13 14:11:00,39.3,38.0,29.99,NNW,343,6.0,12.0,95,0.05,,---,2.61,VWS V14.01,2013-01-13 20:11:00,
2013-01-13 14:16:00,39.3,38.0,30.01,North,5,5.0,13.0,95,0.05,,---,2.61,VWS V14.01,2013-01-13 20:16:00,
2013-01-13 14:21:00,39.3,38.0,30.01,NNW,338,5.0,13.0,95,0.05,,---,2.61,VWS V14.01,2013-01-13 20:21:00,
2013-01-13 14:26:00,39.4,37.8,30.04,NW,319,6.0,13.0,94,0.05,,---,2.61,VWS V14.01,2013-01-13 20:26:00,
2013-01-13 14:31:00,39.3,37.7,30.03,NNW,340,7.0,13.0,94,0.05,,---,2.61,VWS V14.01,2013-01-13 20:31:00,
2013-01-13 14:36:00,39.2,37.3,30.03,NNW,348,9.0,9.0,93,0.04,,---,2.61,VWS V14.01,2013-01-13 20:36:00,
2013-01-13 14:41:00,39.2,37.6,30.04,NW,323,7.0,13.0,94,0.04,,---,2.61,VWS V14.01,2013-01-13 20:41:00,
2013-01-13 14:46:00,39.0,37.4,30.04,NW,316,9.0,19.0,94,0.05,,---,2.62,VWS V14.01,2013-01-13 20:46:00,
2013-01-13 14:51:00,38.8,37.0,30.04,NNW,342,5.0,19.0,93,0.05,,---,2.62,VWS V14.01,2013-01-13 20:51:00,
2013-01-13 14:56:00,38.8,37.0,30.05,NW,321,9.0,19.0,93,0.05,,---,2.62,VWS V14.01,2013-01-13 20:56:00,
2013-01-13 15:01:00,38.7,37.1,30.05,NNW,341,1.0,19.0,94,0.05,,---,2.62,VWS V14.01,2013-01-13 21:01:00,
2013-01-13 15:06:00,38.7,37.1,30.06,NW,312,3.0,11.0,94,0.01,,---,2.62,VWS V14.01,2013-01-13 21:06:00,
2013-01-13 15:11:00,38.6,37.0,30.10,NNW,348,7.0,16.0,94,0.01,,---,2.62,VWS V14.01,2013-01-13 21:11:00,
2013-01-13 15:16:00,38.4,36.8,30.08,NW,314,5.0,18.0,94,0.02,,---,2.63,VWS V14.01,2013-01-13 21:16:00,
2013-01-13 15:21:00,38.3,36.7,30.09,NNW,346,6.0,18.0,94,0.03,,---,2.64,VWS V14.01,2013-01-13 21:21:00,
2013-01-13 15:26:00,38.1,36.5,30.09,NNW,329,14.0,18.0,94,0.04,,---,2.65,VWS V14.01,2013-01-13 21:26:00,
2013-01-13 15:31:00,37.8,36.0,30.08,North,355,14.0,18.0,93,0.04,,---,2.65,VWS V14.01,2013-01-13 21:31:00,
2013-01-13 15:36:00,37.6,35.8,30.09,WNW,291,9.0,17.0,93,0.04,,---,2.65,VWS V14.01,2013-01-13 21:36:00,
2013-01-13 15:41:00,37.5,35.9,30.10,NNE,32,9.0,17.0,94,0.04,,---,2.65,VWS V14.01,2013-01-13 21:41:00,
2013-01-13 15:46:00,37.4,35.8,30.11,NNW,345,6.0,17.0,94,0.04,,---,2.65,VWS V14.01,2013-01-13 21:46:00,
2013-01-13 15:51:00,37.3,35.5,30.12,NNW,333,11.0,17.0,93,0.04,,---,2.65,VWS V14.01,2013-01-13 21:51:00,
2013-01-13 15:56:00,37.1,35.5,30.13,North,349,8.0,18.0,94,0.04,,---,2.65,VWS V14.01,2013-01-13 21:56:00,
2013-01-13 16:01:00,37.0,35.4,30.13,NNW,332,7.0,18.0,94,0.04,,---,2.65,VWS V14.01,2013-01-13 22:01:00,
2013-01-13 16:06:00,36.9,35.3,30.12,NNW,331,11.0,17.0,94,0.03,,---,2.65,VWS V14.01,2013-01-13 22:06:00,
2013-01-13 16:11:00,36.8,35.2,30.13,NNW,330,7.0,17.0,94,0.03,,---,2.65,VWS V14.01,2013-01-13 22:11:00,
2013-01-13 16:16:00,36.7,35.1,30.14,North,360,9.0,17.0,94,0.03,,---,2.65,VWS V14.01,2013-01-13 22:16:00,
2013-01-13 16:21:00,36.7,35.1,30.14,NNW,338,6.0,17.0,94,0.03,,---,2.65,VWS V14.01,2013-01-13 22:21:00,
2013-01-13 16:26:00,36.6,35.0,30.13,NNW,341,7.0,17.0,94,0.03,,---,2.65,VWS V14.01,2013-01-13 22:26:00,
2013-01-13 16:31:00,36.5,34.7,30.13,NNW,333,12.0,17.0,93,0.03,,---,2.65,VWS V14.01,2013-01-13 22:31:00,
2013-01-13 16:36:00,36.4,34.8,30.13,NNW,334,8.0,11.0,94,0.00,,---,2.65,VWS V14.01,2013-01-13 22:36:00,
2013-01-13 16:41:00,36.4,34.8,30.14,NW,305,3.0,11.0,94,0.00,,---,2.65,VWS V14.01,2013-01-13 22:41:00,
2013-01-13 16:46:00,36.4,34.8,30.14,NW,317,3.0,12.0,94,0.00,,---,2.65,VWS V14.01,2013-01-13 22:46:00,
2013-01-13 16:51:00,36.5,34.9,30.14,North,360,7.0,12.0,94,0.00,,---,2.65,VWS V14.01,2013-01-13 22:51:00,
2013-01-13 16:56:00,36.4,34.8,30.14,NNW,335,5.0,12.0,94,0.00,,---,2.65,VWS V14.01,2013-01-13 22:56:00,
2013-01-13 17:01:00,36.4,34.8,30.14,NNE,14,5.0,12.0,94,0.00,,---,2.65,VWS V14.01,2013-01-13 23:01:00,
2013-01-13 17:06:00,36.4,34.8,30.14,North,5,9.0,9.0,94,0.00,,---,2.65,VWS V14.01,2013-01-13 23:06:00,
2013-01-13 17:11:00,36.4,35.1,30.14,North,360,10.0,10.0,95,0.00,,---,2.65,VWS V14.01,2013-01-13 23:11:00,
2013-01-13 17:16:00,36.5,34.9,30.14,North,355,5.0,10.0,94,0.00,,---,2.65,VWS V14.01,2013-01-13 23:16:00,
2013-01-13 17:21:00,36.5,34.9,30.14,North,360,5.0,11.0,94,0.00,,---,2.65,VWS V14.01,2013-01-13 23:21:00,
2013-01-13 17:26:00,36.4,34.8,30.14,NNE,13,7.0,12.0,94,0.00,,---,2.65,VWS V14.01,2013-01-13 23:26:00,
2013-01-13 17:31:00,36.3,34.7,30.14,NNE,18,7.0,14.0,94,0.00,,---,2.65,VWS V14.01,2013-01-13 23:31:00,
2013-01-13 17:36:00,36.3,34.7,30.14,North,360,6.0,9.0,94,0.00,,---,2.65,VWS V14.01,2013-01-13 23:36:00,
2013-01-13 17:41:00,36.2,34.6,30.14,North,351,7.0,12.0,94,0.00,,---,2.65,VWS V14.01,2013-01-13 23:41:00,
2013-01-13 17:46:00,36.2,34.6,30.15,NNE,20,7.0,12.0,94,0.00,,---,2.65,VWS V14.01,2013-01-13 23:46:00,
2013-01-13 17:51:00,36.2,34.6,30.16,North,5,7.0,12.0,94,0.00,,---,2.65,VWS V14.01,2013-01-13 23:51:00,
2013-01-13 17:56:00,36.2,34.6,30.16,NNE,27,10.0,15.0,94,0.00,,---,2.65,VWS V14.01,2013-01-13 23:56:00,
2013-01-13 18:01:00,36.2,34.6,30.16,NNE,23,3.0,15.0,94,0.00,,---,2.65,VWS V14.01,2013-01-14 00:01:00,
2013-01-13 18:06:00,36.2,34.6,30.16,NNW,346,10.0,10.0,94,0.00,,---,2.65,VWS V14.01,2013-01-14 00:06:00,
2013-01-13 18:11:00,36.2,34.6,30.17,North,9,8.0,11.0,94,0.00,,---,2.65,VWS V14.01,2013-01-14 00:11:00,
2013-01-13 18:16:00,36.2,34.6,30.17,NNW,342,2.0,11.0,94,0.00,,---,2.65,VWS V14.01,2013-01-14 00:16:00,
2013-01-13 18:21:00,36.2,34.6,30.17,North,355,8.0,13.0,94,0.00,,---,2.65,VWS V14.01,2013-01-14 00:21:00,
2013-01-13 18:26:00,36.2,34.4,30.17,NNW,338,3.0,13.0,93,0.00,,---,2.65,VWS V14.01,2013-01-14 00:26:00,
2013-01-13 18:31:00,36.1,34.3,30.17,NNW,346,5.0,13.0,93,0.00,,---,2.65,VWS V14.01,2013-01-14 00:31:00,
2013-01-13 18:36:00,36.1,34.3,30.17,NE,42,9.0,9.0,93,0.00,,---,2.65,VWS V14.01,2013-01-14 00:36:00,
2013-01-13 18:41:00,36.1,34.3,30.16,NNW,339,5.0,12.0,93,0.00,,---,2.65,VWS V14.01,2013-01-14 00:41:00,
2013-01-13 18:46:00,36.1,34.3,30.16,North,355,4.0,12.0,93,0.00,,---,2.65,VWS V14.01,2013-01-14 00:46:00,
2013-01-13 18:51:00,36.1,34.3,30.16,North,355,7.0,12.0,93,0.00,,---,2.65,VWS V14.01,2013-01-14 00:51:00,
2013-01-13 18:56:00,36.0,33.9,30.16,North,350,8.0,12.0,92,0.00,,---,2.65,VWS V14.01,2013-01-14 00:56:00,
2013-01-13 19:01:00,36.0,33.9,30.16,North,360,10.0,15.0,92,0.00,,---,2.65,VWS V14.01,2013-01-14 01:01:00,
2013-01-13 19:06:00,36.0,33.9,30.17,NNW,334,4.0,8.0,92,0.00,,---,2.65,VWS V14.01,2013-01-14 01:06:00,
2013-01-13 19:11:00,35.9,33.5,30.17,NNE,16,7.0,14.0,91,0.00,,---,2.65,VWS V14.01,2013-01-14 01:11:00,
2013-01-13 19:16:00,35.9,33.5,30.17,ENE,67,9.0,14.0,91,0.00,,---,2.65,VWS V14.01,2013-01-14 01:16:00,
2013-01-13 19:21:00,35.9,33.8,30.18,ESE,113,8.0,14.0,92,0.00,,---,2.65,VWS V14.01,2013-01-14 01:21:00,
2013-01-13 19:26:00,35.8,33.4,30.18,NNE,13,9.0,14.0,91,0.00,,---,2.65,VWS V14.01,2013-01-14 01:26:00,
2013-01-13 19:31:00,35.7,33.1,30.18,ENE,61,12.0,17.0,90,0.00,,---,2.65,VWS V14.01,2013-01-14 01:31:00,
2013-01-13 19:36:00,35.6,33.0,30.18,North,5,9.0,16.0,90,0.00,,---,2.65,VWS V14.01,2013-01-14 01:36:00,
2013-01-13 19:41:00,35.5,32.6,30.19,North,351,8.0,19.0,89,0.00,,---,2.65,VWS V14.01,2013-01-14 01:41:00,
2013-01-13 19:46:00,35.4,32.8,30.19,North,349,7.0,19.0,90,0.00,,---,2.65,VWS V14.01,2013-01-14 01:46:00,
2013-01-13 19:51:00,35.4,32.8,30.20,North,5,6.0,19.0,90,0.00,,---,2.65,VWS V14.01,2013-01-14 01:51:00,
2013-01-13 19:56:00,35.4,32.8,30.19,NW,321,7.0,19.0,90,0.00,,---,2.65,VWS V14.01,2013-01-14 01:56:00,
2013-01-13 20:01:00,35.3,32.7,30.20,NNE,18,7.0,19.0,90,0.00,,---,2.65,VWS V14.01,2013-01-14 02:01:00,
2013-01-13 20:06:00,35.3,32.7,30.20,North,360,6.0,10.0,90,0.00,,---,2.65,VWS V14.01,2013-01-14 02:06:00,
2013-01-13 20:11:00,35.3,32.7,30.20,NNW,347,7.0,14.0,90,0.00,,---,2.65,VWS V14.01,2013-01-14 02:11:00,
2013-01-13 20:16:00,35.2,32.3,30.20,NNW,338,5.0,14.0,89,0.00,,---,2.65,VWS V14.01,2013-01-14 02:16:00,
2013-01-13 20:21:00,35.0,32.1,30.21,NNW,348,7.0,14.0,89,0.00,,---,2.65,VWS V14.01,2013-01-14 02:21:00,
2013-01-13 20:26:00,34.9,31.7,30.21,North,5,6.0,14.0,88,0.00,,---,2.65,VWS V14.01,2013-01-14 02:26:00,
2013-01-13 20:31:00,34.7,31.5,30.21,NNE,24,4.0,14.0,88,0.00,,---,2.65,VWS V14.01,2013-01-14 02:31:00,
2013-01-13 20:36:00,34.6,31.7,30.21,North,355,8.0,10.0,89,0.00,,---,2.65,VWS V14.01,2013-01-14 02:36:00,
2013-01-13 20:41:00,34.5,31.6,30.21,NNE,25,5.0,10.0,89,0.00,,---,2.65,VWS V14.01,2013-01-14 02:41:00,
2013-01-13 20:46:00,34.3,31.4,30.21,North,5,4.0,13.0,89,0.00,,---,2.65,VWS V14.01,2013-01-14 02:46:00,
2013-01-13 20:51:00,34.2,31.0,30.21,North,355,5.0,13.0,88,0.00,,---,2.65,VWS V14.01,2013-01-14 02:51:00,
2013-01-13 20:56:00,33.9,30.5,30.21,NNW,333,13.0,15.0,87,0.00,,---,2.65,VWS V14.01,2013-01-14 02:56:00,
2013-01-13 21:01:00,33.7,30.2,30.21,North,10,10.0,15.0,87,0.00,,---,2.65,VWS V14.01,2013-01-14 03:01:00,
2013-01-13 21:06:00,33.6,30.1,30.21,NNE,25,6.0,8.0,87,0.00,,---,2.65,VWS V14.01,2013-01-14 03:06:00,
2013-01-13 21:11:00,33.4,30.2,30.21,NE,36,5.0,12.0,88,0.00,,---,2.65,VWS V14.01,2013-01-14 03:11:00,
2013-01-13 21:16:00,33.4,30.2,30.21,North,360,1.0,12.0,88,0.00,,---,2.65,VWS V14.01,2013-01-14 03:16:00,
2013-01-13 21:21:00,33.3,30.1,30.21,NNW,333,3.0,12.0,88,0.00,,---,2.65,VWS V14.01,2013-01-14 03:21:00,
2013-01-13 21:26:00,33.2,30.3,30.22,North,5,5.0,12.0,89,0.00,,---,2.65,VWS V14.01,2013-01-14 03:26:00,
2013-01-13 21:31:00,33.1,30.2,30.21,NNW,331,6.0,12.0,89,0.00,,---,2.65,VWS V14.01,2013-01-14 03:31:00,
2013-01-13 21:36:00,33.0,30.1,30.22,NNW,348,6.0,9.0,89,0.00,,---,2.65,VWS V14.01,2013-01-14 03:36:00,
2013-01-13 21:41:00,32.9,30.0,30.22,NNW,348,3.0,9.0,89,0.00,,---,2.65,VWS V14.01,2013-01-14 03:41:00,
2013-01-13 21:46:00,32.8,29.9,30.22,NNE,15,7.0,13.0,89,0.00,,---,2.65,VWS V14.01,2013-01-14 03:46:00,
2013-01-13 21:51:00,32.8,30.2,30.22,North,5,4.0,13.0,90,0.00,,---,2.65,VWS V14.01,2013-01-14 03:51:00,
2013-01-13 21:56:00,32.8,30.2,30.23,NE,53,3.0,13.0,90,0.00,,---,2.65,VWS V14.01,2013-01-14 03:56:00,
2013-01-13 22:01:00,32.8,29.9,30.23,NNE,28,8.0,13.0,89,0.00,,---,2.65,VWS V14.01,2013-01-14 04:01:00,
2013-01-13 22:06:00,32.8,30.2,30.23,North,10,5.0,7.0,90,0.00,,---,2.65,VWS V14.01,2013-01-14 04:06:00,
2013-01-13 22:11:00,32.8,30.2,30.23,North,355,5.0,8.0,90,0.00,,---,2.65,VWS V14.01,2013-01-14 04:11:00,
2013-01-13 22:16:00,32.8,30.2,30.24,NNE,13,2.0,8.0,90,0.00,,---,2.65,VWS V14.01,2013-01-14 04:16:00,
2013-01-13 22:21:00,32.8,30.2,30.24,North,360,8.0,10.0,90,0.00,,---,2.65,VWS V14.01,2013-01-14 04:21:00,
2013-01-13 22:26:00,32.7,30.1,30.24,North,9,5.0,10.0,90,0.00,,---,2.65,VWS V14.01,2013-01-14 04:26:00,
2013-01-13 22:31:00,32.6,29.7,30.24,NNE,16,9.0,10.0,89,0.00,,---,2.65,VWS V14.01,2013-01-14 04:31:00,
2013-01-13 22:36:00,32.6,29.7,30.25,North,360,8.0,9.0,89,0.00,,---,2.65,VWS V14.01,2013-01-14 04:36:00,
2013-01-13 22:41:00,32.5,29.6,30.25,NNE,22,5.0,9.0,89,0.00,,---,2.65,VWS V14.01,2013-01-14 04:41:00,
2013-01-13 22:46:00,32.4,29.2,30.25,NNE,32,6.0,14.0,88,0.00,,---,2.65,VWS V14.01,2013-01-14 04:46:00,
2013-01-13 22:51:00,32.3,29.1,30.25,NE,38,8.0,14.0,88,0.00,,---,2.65,VWS V14.01,2013-01-14 04:51:00,
2013-01-13 22:56:00,32.3,29.1,30.25,North,11,8.0,14.0,88,0.00,,---,2.65,VWS V14.01,2013-01-14 04:56:00,
2013-01-13 23:00:00,32.1,29.0,30.25,NNE,30,2.0,14.0,88,0.00,,---,2.65,VWS V14.01,2013-01-14 05:00:00,
2013-01-13 23:01:00,32.1,29.0,30.25,NNE,24,11.0,14.0,88,0.00,,---,2.65,VWS V14.01,2013-01-14 05:01:00,
2013-01-13 23:03:00,32.1,29.0,30.25,ENE,57,8.0,14.0,88,0.00,,---,2.65,VWS V14.01,2013-01-14 05:03:00,
2013-01-13 23:08:00,32.0,28.9,30.25,NW,311,6.0,12.0,88,0.00,,---,2.65,VWS V14.01,2013-01-14 05:08:00,
2013-01-13 23:13:00,31.9,29.0,30.26,NNE,15,4.0,12.0,89,0.00,,---,2.65,VWS V14.01,2013-01-14 05:13:00,
2013-01-13 23:18:00,31.8,28.7,30.26,NNE,32,8.0,12.0,88,0.00,,---,2.65,VWS V14.01,2013-01-14 05:18:00,
2013-01-13 23:23:00,31.7,28.6,30.26,ENE,63,4.0,12.0,88,0.00,,---,2.65,VWS V14.01,2013-01-14 05:23:00,
2013-01-13 23:28:00,31.6,28.5,30.26,NNE,15,6.0,14.0,88,0.00,,---,2.65,VWS V14.01,2013-01-14 05:28:00,
2013-01-13 23:33:00,31.6,28.5,30.26,North,355,6.0,14.0,88,0.00,,---,2.65,VWS V14.01,2013-01-14 05:33:00,
2013-01-13 23:38:00,31.5,28.1,30.27,NE,48,6.0,12.0,87,0.00,,---,2.65,VWS V14.01,2013-01-14 05:38:00,
2013-01-13 23:43:00,31.5,28.1,30.27,North,355,6.0,12.0,87,0.00,,---,2.65,VWS V14.01,2013-01-14 05:43:00,
2013-01-13 23:48:00,31.5,28.1,30.27,North,360,8.0,12.0,87,0.00,,---,2.65,VWS V14.01,2013-01-14 05:48:00,
2013-01-13 23:53:00,31.5,28.1,30.27,North,360,4.0,16.0,87,0.00,,---,2.65,VWS V14.01,2013-01-14 05:53:00,
2013-01-13 23:58:00,31.5,28.1,30.27,NNW,344,5.0,16.0,87,0.00,,---,2.65,VWS V14.01,2013-01-14 05:58:00,